Location: B?jaj?g
(11.7167°N, 92.6667°E)
Time: 04:00:48
(UTC+00:00)

GEOS 3 Rocket - Pass Details

Date: 18 September 2020
Orbit: 770 x 849 km, 115.0° (Epoch: 18 October)

Event Time Altitude Azimuth Distance (km) Brightness Sun altitude
Rises 22:10:37 0° 36° (NE) 3,386 7.5 -22.3°
Reaches altitude 10° 22:13:00 10° 40° (NE) 2,444 6.7 -21.7°
Maximum altitude 22:18:12 56° 118° (ESE) 979 4.3 -20.5°
Drops below altitude 10° 22:23:19 10° 195° (SSW) 2,399 5.9 -19.2°
Enters shadow 22:25:14 - 199° (SSW) 3,158 6.4 -18.8°
